STARLINK-2387, 47806

Orbit data source: Space-Track

STARLINK-2387, 47806 is a payload satellite owned by SpaceX/Seattle (US) in LEO that was launched on Thu, 11 Mar 2021 UTC via an FALCON 9 launch vehicle from the Air Force Eastern Test Range (AFETR). Payload-class satellites include a variety of spacecraft equipped with specific instruments for various scientific and technological missions. These include communications satellites like Starlink; space stations such as the ISS; scientific satellites like the Hubble; Earth observation satellites from companies like Planet Labs, Umbra, and HawkEye 360; GPS; miniature CubeSats for education and research; and military/defense satellites.

Loading next visibility...
Identifier
47806, 2021-018V
Orbit
LEO
Country
Flag of USUS
Related business
Manufacturer
SpaceX/Seattle
Mission
Operational Commercial Communications
Bus & Motor
STARLINK, Unknown motor
Mass
260 kg wet, ~248 kg dry
Launch date (UTC)
2021-03-11 (6 years ago)
Launch vehicle
FALCON 9
Launch site
Air Force Eastern Test Range (AFETR)
Object type
Payload
Rocket body
Debris
Shape & HBR
Box + 1 Pan, 10.1 m
Radar Cross Section
13.562 m², Large (>1 m²)

Expand to show TLE details & history
Last TLE update: 13 hours ago

TLE from 13 hours ago
0 STARLINK-2387
1 47806U 21018V   26263.05516778 -.00000593  00000-0 -73605-5 0  9990
2 47806  53.1587  58.4324 0001053  91.1200 268.9922 15.31699371306567
Epoch: 2026-09-20T01:19Z
TLE epoch observation values (Epoch: 2026-09-20T01:19:26.496Z)
Latitude
-0.00001°
Longitude
39.61715°
Altitude
471.655 km
Speed
7.631 km/s
True Right ascension
03h 53m 43s
True Declination
0° 00' 00"
Sunlit
Object was in full shadow at epoch
Visualization orbit readout
Latitude
Unknown
Longitude
Unknown
Altitude
Unknown
Speed
Unknown
Apparent Right ascension
Unknown
Apparent Declination
Unknown
Sunlit
N/A
Visualization observer readout
Local Sidereal Time
07:00:12
Azimuth
Unknown
Elevation
Unknown
Doppler factor
Unknown
Orbital elements
Apogee altitude
471.72 km
Perigee altitude
470.277 km
Semi-major axis
6,849.136 km
Eccentricity
0.00011
Inclination
53.1587°
RAAN
58.4324°
Arg. of periapsis
91.12°
True anomaly
268.98014°
Mean anomaly
268.9922°
Eccentric anomaly
268.98617°
Mean motion
3.82904 °/min
Orbital period
94.02 mins
BSTAR
-0.0000073605
Loading maneuver chart data...
Computing Atmospheric mass density...
Loading historical data...
Loading historical data...
Loading historical data...
Loading historical data...
Loading historical data...
Loading historical data...
Loading historical data...

Documentation

Showing up to 5 results
|